Time,TemperatureF,DewpointF,PressureIn,WindDirection,WindDirectionDegrees,WindSpeedMPH,WindSpeedGustMPH,Humidity,HourlyPrecipIn,Conditions,Clouds,dailyrainin,SoftwareType,DateUTC
2013-03-03 00:01:00,46.0,36.0,-100.00,West,272,0.0,6.0,67,-99.99,,,-99.99,,2013-03-03 07:01:00,
2013-03-03 00:11:00,46.0,36.0,-100.00,West,272,0.0,6.0,67,-99.99,,,-99.99,,2013-03-03 07:11:00,
2013-03-03 00:21:00,46.0,36.0,-100.00,NW,315,0.0,10.0,68,-99.99,,,-99.99,,2013-03-03 07:21:00,
2013-03-03 00:31:00,45.0,35.0,-100.00,NW,319,4.0,9.0,69,-99.99,,,-99.99,,2013-03-03 07:31:00,
2013-03-03 00:42:00,45.0,35.0,-100.00,NW,319,4.0,9.0,69,-99.99,,,-99.99,,2013-03-03 07:42:00,
2013-03-03 00:51:00,46.0,36.0,-100.00,WNW,295,2.0,16.0,69,-99.99,,,-99.99,,2013-03-03 07:51:00,
2013-03-03 01:01:00,46.0,36.0,-100.00,NNW,341,3.0,10.0,67,-99.99,,,-99.99,,2013-03-03 08:01:00,
2013-03-03 01:11:00,46.0,36.0,-100.00,NNW,341,3.0,10.0,67,-99.99,,,-99.99,,2013-03-03 08:11:00,
2013-03-03 01:21:00,46.0,36.0,-100.00,NNW,341,3.0,10.0,67,-99.99,,,-99.99,,2013-03-03 08:21:00,
2013-03-03 01:31:00,45.0,36.0,-100.00,WNW,291,0.0,0.0,70,-99.99,,,-99.99,,2013-03-03 08:31:00,
2013-03-03 01:41:00,45.0,36.0,-100.00,WNW,291,0.0,0.0,70,-99.99,,,-99.99,,2013-03-03 08:41:00,
2013-03-03 01:54:00,45.0,36.0,-100.00,WNW,291,0.0,0.0,70,-99.99,,,-99.99,,2013-03-03 08:54:00,
2013-03-03 02:01:00,44.0,35.0,-100.00,WNW,291,0.0,0.0,71,-99.99,,,-99.99,,2013-03-03 09:01:00,
2013-03-03 02:11:00,44.0,35.0,-100.00,WNW,291,0.0,0.0,71,-99.99,,,-99.99,,2013-03-03 09:11:00,
2013-03-03 02:21:00,44.0,35.0,-100.00,WNW,291,0.0,0.0,71,-99.99,,,-99.99,,2013-03-03 09:21:00,
2013-03-03 02:32:00,45.0,36.0,-100.00,NW,323,0.0,0.0,70,-99.99,,,-99.99,,2013-03-03 09:32:00,
2013-03-03 02:41:00,45.0,36.0,-100.00,NW,323,0.0,0.0,70,-99.99,,,-99.99,,2013-03-03 09:41:00,
2013-03-03 02:52:00,45.0,36.0,-100.00,NNW,345,0.0,0.0,70,-99.99,,,-99.99,,2013-03-03 09:52:00,
2013-03-03 03:01:00,43.0,36.0,-100.00,WNW,302,0.0,0.0,75,-99.99,,,-99.99,,2013-03-03 10:01:00,
2013-03-03 03:11:00,43.0,36.0,-100.00,WNW,302,0.0,0.0,75,-99.99,,,-99.99,,2013-03-03 10:11:00,
2013-03-03 03:21:00,43.0,36.0,-100.00,WNW,302,0.0,0.0,75,-99.99,,,-99.99,,2013-03-03 10:21:00,
2013-03-03 03:32:00,42.0,36.0,-100.00,West,281,0.0,0.0,78,-99.99,,,-99.99,,2013-03-03 10:32:00,
2013-03-03 03:42:00,42.0,36.0,-100.00,West,281,0.0,0.0,78,-99.99,,,-99.99,,2013-03-03 10:42:00,
2013-03-03 03:52:00,42.0,36.0,-100.00,West,281,0.0,0.0,78,-99.99,,,-99.99,,2013-03-03 10:52:00,
2013-03-03 04:01:00,43.0,36.0,-100.00,West,281,0.0,0.0,77,-99.99,,,-99.99,,2013-03-03 11:01:00,
2013-03-03 04:11:00,43.0,36.0,-100.00,West,281,0.0,0.0,77,-99.99,,,-99.99,,2013-03-03 11:11:00,
2013-03-03 04:21:00,43.0,36.0,-100.00,West,281,0.0,0.0,77,-99.99,,,-99.99,,2013-03-03 11:21:00,
2013-03-03 04:32:00,43.0,37.0,-100.00,West,281,0.0,0.0,78,-99.99,,,-99.99,,2013-03-03 11:32:00,
2013-03-03 04:42:00,43.0,37.0,-100.00,West,281,0.0,0.0,78,-99.99,,,-99.99,,2013-03-03 11:42:00,
2013-03-03 04:52:00,42.0,36.0,-100.00,West,281,0.0,0.0,79,-99.99,,,-99.99,,2013-03-03 11:52:00,
2013-03-03 05:01:00,42.0,36.0,-100.00,West,281,0.0,0.0,79,-99.99,,,-99.99,,2013-03-03 12:01:00,
2013-03-03 05:11:00,42.0,36.0,-100.00,West,281,0.0,0.0,79,-99.99,,,-99.99,,2013-03-03 12:11:00,
2013-03-03 05:21:00,42.0,36.0,-100.00,West,281,0.0,0.0,79,-99.99,,,-99.99,,2013-03-03 12:21:00,
2013-03-03 05:32:00,41.0,36.0,-100.00,WSW,258,0.0,0.0,82,-99.99,,,-99.99,,2013-03-03 12:32:00,
2013-03-03 05:43:00,41.0,36.0,-100.00,WSW,258,0.0,0.0,82,-99.99,,,-99.99,,2013-03-03 12:43:00,
2013-03-03 05:53:00,41.0,36.0,-100.00,WSW,258,0.0,0.0,82,-99.99,,,-99.99,,2013-03-03 12:53:00,
2013-03-03 06:01:00,41.0,36.0,-100.00,West,260,0.0,0.0,83,-99.99,,,-99.99,,2013-03-03 13:01:00,
2013-03-03 06:11:00,41.0,36.0,-100.00,West,260,0.0,0.0,83,-99.99,,,-99.99,,2013-03-03 13:11:00,
2013-03-03 06:22:00,41.0,36.0,-100.00,West,260,0.0,0.0,82,-99.99,,,-99.99,,2013-03-03 13:22:00,
2013-03-03 06:32:00,41.0,36.0,-100.00,WNW,282,0.0,0.0,82,-99.99,,,-99.99,,2013-03-03 13:32:00,
2013-03-03 06:42:00,41.0,36.0,-100.00,WNW,282,0.0,0.0,82,-99.99,,,-99.99,,2013-03-03 13:42:00,
2013-03-03 06:51:00,41.0,36.0,-100.00,WNW,282,0.0,0.0,82,-99.99,,,-99.99,,2013-03-03 13:51:00,
2013-03-03 07:02:00,41.0,36.0,-100.00,SSW,212,5.0,5.0,83,-99.99,,,-99.99,,2013-03-03 14:02:00,
2013-03-03 07:11:00,41.0,36.0,-100.00,SSW,212,5.0,5.0,83,-99.99,,,-99.99,,2013-03-03 14:11:00,
2013-03-03 07:21:00,42.0,37.0,-100.00,WSW,243,0.0,0.0,82,-99.99,,,-99.99,,2013-03-03 14:21:00,
2013-03-03 07:32:00,43.0,38.0,-100.00,WSW,243,0.0,0.0,81,-99.99,,,-99.99,,2013-03-03 14:32:00,
2013-03-03 07:42:00,43.0,38.0,-100.00,WSW,243,0.0,0.0,81,-99.99,,,-99.99,,2013-03-03 14:42:00,
2013-03-03 07:52:00,43.0,38.0,-100.00,WSW,243,0.0,0.0,81,-99.99,,,-99.99,,2013-03-03 14:52:00,
2013-03-03 08:01:00,43.0,38.0,-100.00,WSW,243,0.0,0.0,81,-99.99,,,-99.99,,2013-03-03 15:01:00,
2013-03-03 08:11:00,43.0,38.0,-100.00,WSW,243,0.0,0.0,81,-99.99,,,-99.99,,2013-03-03 15:11:00,
2013-03-03 08:22:00,43.0,38.0,-100.00,WSW,243,0.0,0.0,81,-99.99,,,-99.99,,2013-03-03 15:22:00,
2013-03-03 08:32:00,44.0,38.0,-100.00,West,267,0.0,0.0,78,-99.99,,,-99.99,,2013-03-03 15:32:00,
2013-03-03 08:42:00,44.0,38.0,-100.00,West,267,0.0,0.0,78,-99.99,,,-99.99,,2013-03-03 15:42:00,
2013-03-03 08:52:00,42.0,37.0,-100.00,West,267,0.0,0.0,82,-99.99,,,-99.99,,2013-03-03 15:52:00,
2013-03-03 09:01:00,42.0,37.0,-100.00,West,265,0.0,0.0,82,-99.99,,,-99.99,,2013-03-03 16:01:00,
2013-03-03 09:12:00,42.0,37.0,-100.00,West,265,0.0,0.0,82,-99.99,,,-99.99,,2013-03-03 16:12:00,
2013-03-03 09:21:00,42.0,37.0,-100.00,West,265,0.0,0.0,82,-99.99,,,-99.99,,2013-03-03 16:21:00,
2013-03-03 09:32:00,43.0,38.0,-100.00,West,274,0.0,0.0,81,-99.99,,,-99.99,,2013-03-03 16:32:00,
2013-03-03 09:42:00,43.0,38.0,-100.00,West,274,0.0,0.0,81,-99.99,,,-99.99,,2013-03-03 16:42:00,
2013-03-03 09:52:00,44.0,38.0,-100.00,West,274,0.0,0.0,80,-99.99,,,-99.99,,2013-03-03 16:52:00,
2013-03-03 10:01:00,45.0,39.0,-100.00,West,274,0.0,0.0,79,-99.99,,,-99.99,,2013-03-03 17:01:00,
2013-03-03 10:11:00,44.0,38.0,-100.00,West,274,0.0,0.0,79,-99.99,,,-99.99,,2013-03-03 17:11:00,
2013-03-03 10:22:00,44.0,38.0,-100.00,West,274,0.0,0.0,79,-99.99,,,-99.99,,2013-03-03 17:22:00,
2013-03-03 10:32:00,44.0,38.0,-100.00,West,274,0.0,0.0,80,-99.99,,,-99.99,,2013-03-03 17:32:00,
2013-03-03 10:42:00,44.0,38.0,-100.00,West,274,0.0,0.0,80,-99.99,,,-99.99,,2013-03-03 17:42:00,
2013-03-03 10:52:00,44.0,38.0,-100.00,West,274,0.0,0.0,80,-99.99,,,-99.99,,2013-03-03 17:52:00,
2013-03-03 11:01:00,44.0,38.0,-100.00,West,274,0.0,0.0,80,-99.99,,,-99.99,,2013-03-03 18:01:00,
2013-03-03 11:11:00,44.0,38.0,-100.00,West,274,0.0,0.0,80,-99.99,,,-99.99,,2013-03-03 18:11:00,
2013-03-03 11:21:00,45.0,39.0,-100.00,West,274,0.0,0.0,79,-99.99,,,-99.99,,2013-03-03 18:21:00,
2013-03-03 11:32:00,46.0,40.0,-100.00,West,274,0.0,0.0,78,-99.99,,,-99.99,,2013-03-03 18:32:00,
2013-03-03 11:42:00,46.0,40.0,-100.00,West,274,0.0,0.0,78,-99.99,,,-99.99,,2013-03-03 18:42:00,
2013-03-03 11:52:00,46.0,40.0,-100.00,West,274,0.0,0.0,78,-99.99,,,-99.99,,2013-03-03 18:52:00,
2013-03-03 12:02:00,47.0,39.0,-100.00,West,274,0.0,0.0,74,-99.99,,,-99.99,,2013-03-03 19:02:00,
2013-03-03 12:11:00,47.0,39.0,-100.00,West,274,0.0,0.0,74,-99.99,,,-99.99,,2013-03-03 19:11:00,
2013-03-03 12:22:00,47.0,39.0,-100.00,West,274,0.0,0.0,74,-99.99,,,-99.99,,2013-03-03 19:22:00,
2013-03-03 12:32:00,47.0,39.0,-100.00,West,274,0.0,0.0,74,-99.99,,,-99.99,,2013-03-03 19:32:00,
2013-03-03 17:52:00,32.0,32.0,-100.00,NNW,344,3.0,10.0,100,-99.99,,,-99.99,,2013-03-04 00:52:00,
2013-03-03 18:01:00,32.0,32.0,-100.00,WNW,303,3.0,8.0,100,-99.99,,,-99.99,,2013-03-04 01:01:00,
2013-03-03 18:10:00,33.0,31.0,-100.00,NW,320,8.0,14.0,94,-99.99,,,-99.99,,2013-03-04 01:10:00,
2013-03-03 18:11:00,32.0,32.0,-100.00,WNW,303,3.0,8.0,100,-99.99,,,-99.99,,2013-03-04 01:11:00,
2013-03-03 18:21:00,32.0,32.0,-100.00,WNW,303,3.0,8.0,100,-99.99,,,-99.99,,2013-03-04 01:21:00,
2013-03-03 18:32:00,33.0,31.0,-100.00,NW,320,8.0,14.0,94,-99.99,,,-99.99,,2013-03-04 01:32:00,
2013-03-03 18:42:00,33.0,31.0,-100.00,NW,320,8.0,14.0,94,-99.99,,,-99.99,,2013-03-04 01:42:00,
2013-03-03 18:52:00,33.0,31.0,-100.00,NW,320,8.0,14.0,94,-99.99,,,-99.99,,2013-03-04 01:52:00,
2013-03-03 19:01:00,33.0,31.0,-100.00,NW,320,8.0,14.0,94,-99.99,,,-99.99,,2013-03-04 02:01:00,
2013-03-03 19:52:00,34.0,32.0,-100.00,North,9,5.0,17.0,92,-99.99,,,-99.99,,2013-03-04 02:52:00,
2013-03-03 20:00:00,34.0,32.0,-100.00,NW,323,4.0,12.0,91,-99.99,,,-99.99,,2013-03-04 03:00:00,
2013-03-03 20:02:00,34.0,32.0,-100.00,North,9,5.0,17.0,92,-99.99,,,-99.99,,2013-03-04 03:02:00,
2013-03-03 20:11:00,34.0,32.0,-100.00,North,9,5.0,17.0,92,-99.99,,,-99.99,,2013-03-04 03:11:00,
2013-03-03 20:21:00,34.0,32.0,-100.00,NW,323,4.0,12.0,91,-99.99,,,-99.99,,2013-03-04 03:21:00,
2013-03-03 20:32:00,34.0,32.0,-100.00,NW,323,4.0,12.0,91,-99.99,,,-99.99,,2013-03-04 03:32:00,
2013-03-03 20:42:00,34.0,32.0,-100.00,NW,323,4.0,12.0,91,-99.99,,,-99.99,,2013-03-04 03:42:00,
2013-03-03 20:52:00,34.0,32.0,-100.00,NW,323,4.0,12.0,91,-99.99,,,-99.99,,2013-03-04 03:52:00,
2013-03-03 21:22:00,34.0,32.0,-100.00,WNW,293,8.0,13.0,91,-99.99,,,-99.99,,2013-03-04 04:22:00,
2013-03-03 21:30:00,32.0,27.0,-100.00,NW,326,7.0,12.0,81,-99.99,,,-99.99,,2013-03-04 04:30:00,
2013-03-03 21:32:00,33.0,27.0,-100.00,NNW,330,9.0,18.0,79,-99.99,,,-99.99,,2013-03-04 04:32:00,
2013-03-03 21:42:00,33.0,27.0,-100.00,NNW,330,9.0,18.0,79,-99.99,,,-99.99,,2013-03-04 04:42:00,
2013-03-03 21:51:00,32.0,27.0,-100.00,NW,326,7.0,12.0,81,-99.99,,,-99.99,,2013-03-04 04:51:00,
2013-03-03 22:01:00,32.0,27.0,-100.00,NW,326,7.0,12.0,81,-99.99,,,-99.99,,2013-03-04 05:01:00,
2013-03-03 22:11:00,32.0,27.0,-100.00,NW,326,7.0,12.0,81,-99.99,,,-99.99,,2013-03-04 05:11:00,
2013-03-03 22:22:00,32.0,27.0,-100.00,NW,326,7.0,12.0,81,-99.99,,,-99.99,,2013-03-04 05:22:00,
2013-03-03 23:32:00,28.0,24.0,-100.00,NNW,327,13.0,16.0,85,-99.99,,,-99.99,,2013-03-04 06:32:00,
2013-03-03 23:42:00,28.0,24.0,-100.00,NNW,327,13.0,16.0,85,-99.99,,,-99.99,,2013-03-04 06:42:00,
2013-03-03 23:52:00,28.0,24.0,-100.00,NNW,338,5.0,14.0,86,-99.99,,,-99.99,,2013-03-04 06:52:00,